When you browse on this site, cookies collect data to enhance your experience and personalize the content and advertising you see.
Visit our Privacy Policy to learn more. By continuing to use the site, you agree to this use of cookies and data.
  • In Slovakia
  • List of Countries
  • For 7 days
  • Water Temperature
  • Satellite Maps
  • Weather Map
  • Weather Widgets
  • user-avatar
    Login

    Hourly Weather Viedma

    Today, 21 January, Monday

    Time Temperature Precipitation Wind Pressure Humidity
    00:00 +31°C° 0 mm 12 mps 748 mmHg 33%
    01:00 +29°C° 0 mm 10 mps 749 mmHg 31%
    02:00 +29°C° 0 mm 8 mps 749 mmHg 30%
    03:00 +27°C° 0 mm 7 mps 750 mmHg 34%
    04:00 +24°C° 0 mm 6 mps 751 mmHg 39%
    05:00 +23°C° 0 mm 5 mps 752 mmHg 44%
    06:00 +23°C° 0 mm 6 mps 752 mmHg 38%
    07:00 +23°C° 0 mm 7 mps 753 mmHg 33%
    08:00 +24°C° 0 mm 8 mps 754 mmHg 27%
    09:00 +24°C° 0 mm 8 mps 754 mmHg 24%
    10:00 +26°C° 0 mm 7 mps 754 mmHg 21%
    11:00 +26°C° 0 mm 6 mps 755 mmHg 19%
    12:00 +27°C° 0 mm 6 mps 755 mmHg 17%
    13:00 +28°C° 0 mm 5 mps 754 mmHg 16%
    14:00 +28°C° 0 mm 5 mps 754 mmHg 15%
    15:00 +29°C° 0 mm 4 mps 754 mmHg 14%
    16:00 +29°C° 0 mm 3 mps 753 mmHg 13%
    17:00 +29°C° 0 mm 2 mps 753 mmHg 12%
    18:00 +27°C° 0 mm 4 mps 752 mmHg 20%
    19:00 +24°C° 0 mm 6 mps 752 mmHg 28%
    20:00 +21°C° 0 mm 8 mps 751 mmHg 36%
    21:00 +21°C° 0 mm 8 mps 751 mmHg 36%
    22:00 +21°C° 0 mm 8 mps 751 mmHg 37%
    23:00 +21°C° 0 mm 9 mps 751 mmHg 38%

    Tomorrow, 22 January, Tuesday

    Time Temperature Precipitation Wind Pressure Humidity
    00:00 +21°C° 0 mm 9 mps 751 mmHg 40%
    01:00 +22°C° 0 mm 8 mps 750 mmHg 42%
    02:00 +22°C° 0 mm 8 mps 750 mmHg 43%
    03:00 +21°C° 0 mm 7 mps 750 mmHg 43%
    04:00 +21°C° 0 mm 6 mps 750 mmHg 43%
    05:00 +21°C° 0 mm 5 mps 750 mmHg 43%
    06:00 +22°C° 0 mm 7 mps 750 mmHg 42%
    07:00 +23°C° 0 mm 8 mps 751 mmHg 41%
    08:00 +24°C° 0 mm 10 mps 752 mmHg 40%
    09:00 +24°C° 0 mm 9 mps 752 mmHg 35%
    10:00 +26°C° 0 mm 9 mps 753 mmHg 30%
    11:00 +27°C° 0 mm 8 mps 753 mmHg 26%
    12:00 +28°C° 0 mm 7 mps 754 mmHg 24%
    13:00 +28°C° 0 mm 7 mps 754 mmHg 23%
    14:00 +29°C° 0 mm 6 mps 755 mmHg 21%
    15:00 +28°C° 0 mm 6 mps 755 mmHg 24%
    16:00 +27°C° 0 mm 5 mps 755 mmHg 26%
    17:00 +26°C° 0 mm 5 mps 755 mmHg 28%
    18:00 +25°C° 0 mm 5 mps 755 mmHg 32%
    19:00 +22°C° 0 mm 6 mps 756 mmHg 37%
    20:00 +20°C° 0 mm 6 mps 756 mmHg 41%
    21:00 +20°C° 0 mm 6 mps 757 mmHg 44%
    22:00 +19°C° 0 mm 5 mps 757 mmHg 47%
    23:00 +19°C° 0 mm 4 mps 758 mmHg 49%

    Day after tomorrow, 23 January, Wednesday

    Time Temperature Precipitation Wind Pressure Humidity
    00:00 +18°C° 0 mm 4 mps 758 mmHg 53%
    01:00 +18°C° 0 mm 4 mps 759 mmHg 57%
    02:00 +17°C° 0 mm 3 mps 759 mmHg 60%
    03:00 +17°C° 0 mm 3 mps 759 mmHg 63%
    04:00 +17°C° 0 mm 3 mps 760 mmHg 67%
    05:00 +17°C° 0 mm 3 mps 760 mmHg 70%
    06:00 +18°C° 0 mm 4 mps 760 mmHg 63%
    07:00 +20°C° 0 mm 4 mps 760 mmHg 55%
    08:00 +22°C° 0 mm 5 mps 761 mmHg 48%
    09:00 +25°C° 0 mm 5 mps 761 mmHg 41%
    10:00 +26°C° 0 mm 5 mps 761 mmHg 33%
    11:00 +28°C° 0 mm 5 mps 761 mmHg 25%
    12:00 +29°C° 0 mm 6 mps 760 mmHg 23%
    13:00 +30°C° 0 mm 7 mps 759 mmHg 21%
    14:00 +32°C° 0 mm 7 mps 759 mmHg 19%
    15:00 +31°C° 0 mm 8 mps 758 mmHg 21%
    16:00 +29°C° 0 mm 9 mps 757 mmHg 24%
    17:00 +28°C° 0 mm 9 mps 757 mmHg 27%
    18:00 +26°C° 0 mm 9 mps 757 mmHg 34%
    19:00 +23°C° 0 mm 9 mps 757 mmHg 41%
    20:00 +21°C° 0 mm 9 mps 756 mmHg 48%
    21:00 +21°C° 0 mm 9 mps 756 mmHg 52%
    22:00 +21°C° 0 mm 9 mps 756 mmHg 55%
    23:00 +21°C° 0 mm 10 mps 756 mmHg 58%

    24 January, Thursday

    Time Temperature Precipitation Wind Pressure Humidity
    00:00 +21°C° 0 mm 9 mps 756 mmHg 57%
    01:00 +21°C° 0 mm 9 mps 755 mmHg 55%
    02:00 +21°C° 0 mm 9 mps 754 mmHg 54%
    03:00 +22°C° 0 mm 9 mps 754 mmHg 48%
    04:00 +23°C° 0 mm 8 mps 754 mmHg 43%
    05:00 +24°C° 0 mm 8 mps 753 mmHg 38%
    06:00 +26°C° 0 mm 8 mps 753 mmHg 39%
    07:00 +28°C° 0 mm 9 mps 753 mmHg 41%
    08:00 +31°C° 0 mm 9 mps 753 mmHg 42%
    09:00 +32°C° 0.3 mm 9 mps 753 mmHg 43%
    10:00 +34°C° 0.3 mm 9 mps 753 mmHg 43%
    11:00 +37°C° 0.3 mm 9 mps 752 mmHg 43%
    12:00 +38°C° 0 mm 9 mps 751 mmHg 38%
    13:00 +40°C° 0 mm 9 mps 751 mmHg 34%
    14:00 +42°C° 0 mm 9 mps 750 mmHg 30%
    15:00 +42°C° 0 mm 9 mps 749 mmHg 30%
    16:00 +42°C° 0 mm 9 mps 748 mmHg 30%
    17:00 +41°C° 0 mm 8 mps 748 mmHg 30%
    18:00 +39°C° 1.5 mm 7 mps 747 mmHg 37%
    19:00 +36°C° 1.5 mm 5 mps 746 mmHg 43%
    20:00 +34°C° 1.5 mm 3 mps 746 mmHg 49%
    21:00 +33°C° 5.8 mm 5 mps 746 mmHg 57%
    22:00 +32°C° 5.8 mm 6 mps 747 mmHg 64%
    23:00 +31°C° 5.8 mm 8 mps 747 mmHg 72%

    25 January, Friday

    Time Temperature Precipitation Wind Pressure Humidity
    00:00 +31°C° 0.4 mm 8 mps 747 mmHg 73%
    01:00 +31°C° 0.4 mm 8 mps 747 mmHg 75%
    02:00 +29°C° 0.4 mm 8 mps 746 mmHg 76%
    03:00 +28°C° 0.1 mm 7 mps 747 mmHg 77%
    04:00 +27°C° 0.1 mm 6 mps 747 mmHg 79%
    05:00 +26°C° 0.1 mm 4 mps 747 mmHg 80%
    06:00 +24°C° 0 mm 7 mps 748 mmHg 72%
    07:00 +24°C° 0 mm 9 mps 748 mmHg 63%
    08:00 +23°C° 0 mm 11 mps 749 mmHg 55%
    09:00 +24°C° 0 mm 11 mps 750 mmHg 48%
    10:00 +24°C° 0 mm 10 mps 750 mmHg 42%
    11:00 +24°C° 0 mm 10 mps 751 mmHg 36%
    12:00 +24°C° 0 mm 10 mps 752 mmHg 36%
    13:00 +24°C° 0 mm 10 mps 753 mmHg 35%
    14:00 +23°C° 0 mm 10 mps 754 mmHg 35%
    15:00 +23°C° 0 mm 8 mps 754 mmHg 36%
    16:00 +22°C° 0 mm 7 mps 754 mmHg 38%
    17:00 +22°C° 0 mm 6 mps 755 mmHg 39%
    18:00 +21°C° 0 mm 5 mps 755 mmHg 40%
    19:00 +20°C° 0 mm 4 mps 756 mmHg 42%
    20:00 +20°C° 0 mm 3 mps 757 mmHg 43%
    21:00 +19°C° 0 mm 3 mps 757 mmHg 45%
    22:00 +19°C° 0 mm 2 mps 758 mmHg 47%
    23:00 +18°C° 0 mm 2 mps 759 mmHg 50%

    26 January, Saturday

    Time Temperature Precipitation Wind Pressure Humidity
    00:00 +18°C° 0 mm 2 mps 759 mmHg 51%
    01:00 +18°C° 0 mm 2 mps 760 mmHg 53%
    02:00 +17°C° 0 mm 2 mps 760 mmHg 55%
    03:00 +17°C° 0 mm 2 mps 761 mmHg 56%
    04:00 +17°C° 0 mm 2 mps 761 mmHg 57%
    05:00 +17°C° 0 mm 3 mps 761 mmHg 58%
    06:00 +18°C° 0 mm 3 mps 762 mmHg 50%
    07:00 +19°C° 0 mm 3 mps 762 mmHg 42%
    08:00 +21°C° 0 mm 3 mps 762 mmHg 34%
    09:00 +22°C° 0 mm 3 mps 762 mmHg 31%
    10:00 +24°C° 0 mm 3 mps 762 mmHg 27%
    11:00 +25°C° 0 mm 3 mps 762 mmHg 24%
    12:00 +25°C° 0 mm 3 mps 762 mmHg 23%
    13:00 +26°C° 0 mm 2 mps 762 mmHg 22%
    14:00 +27°C° 0 mm 2 mps 762 mmHg 22%
    15:00 +27°C° 0 mm 3 mps 761 mmHg 23%
    16:00 +26°C° 0 mm 4 mps 761 mmHg 25%
    17:00 +26°C° 0 mm 5 mps 760 mmHg 26%
    18:00 +24°C° 0 mm 6 mps 760 mmHg 32%
    19:00 +22°C° 0 mm 6 mps 760 mmHg 38%
    20:00 +21°C° 0 mm 7 mps 760 mmHg 44%
    21:00 +21°C° 0 mm 7 mps 760 mmHg 44%
    22:00 +20°C° 0 mm 7 mps 759 mmHg 44%
    23:00 +20°C° 0 mm 8 mps 759 mmHg 45%
    Show more